User: anonymous   Login
Location: Unspecified
(0.0000°N, 0.0000°E)
Time: 22:00:23
(UTC+00:00)
Language:

APRIZESAT 10 - Orbit

View from above orbital plane
View from above orbital plane
View from above satellite
View from above satellite

Ground track
Ground track

The orbit data is extracted from the following two-line orbital elements,

1 40019U 14033K   17082.86894727 +.00000062 +00000-0 +19255-4 0  9998
2 40019 097.8503 318.4766 0083233 235.2900 124.0444 14.66857719147536
Epoch (UTC): 23 March 2017 20:51:17
Eccentricity: 0.0083233
inclination: 97.8503°
perigee height: 612 km
apogee height: 730 km
right ascension of ascending node: 318.4766°
argument of perigee: 235.2900°
revolutions per day: 14.66857719
mean anomaly at epoch: 124.0444°
orbit number at epoch: 14753

The dashed part of the orbit path shows where the satellite is in the earth's shadow,  

DLR